Year,Month,Day,Hour,Minute,Value (Times are PST for temperature in C)
2015,05,29,00,00,13.00
2015,05,29,00,01,13.00
2015,05,29,00,02,13.00
2015,05,29,00,03,13.00
2015,05,29,00,04,13.00
2015,05,29,00,05,13.00
2015,05,29,00,06,13.00
2015,05,29,00,07,13.00
2015,05,29,00,08,13.00
2015,05,29,00,09,13.00
2015,05,29,00,10,13.00
2015,05,29,00,11,13.00
2015,05,29,00,12,13.00
2015,05,29,00,13,13.10
2015,05,29,00,14,13.10
2015,05,29,00,15,13.10
2015,05,29,00,16,13.10
2015,05,29,00,17,13.10
2015,05,29,00,18,13.10
2015,05,29,00,19,13.10
2015,05,29,00,20,13.10
2015,05,29,00,21,13.10
2015,05,29,00,22,13.20
2015,05,29,00,23,13.20
2015,05,29,00,24,13.20
2015,05,29,00,25,13.20
2015,05,29,00,26,13.20
2015,05,29,00,27,13.20
2015,05,29,00,28,13.20
2015,05,29,00,29,13.20
2015,05,29,00,30,13.20
2015,05,29,00,31,13.20
2015,05,29,00,32,13.30
2015,05,29,00,33,13.30
2015,05,29,00,34,13.30
2015,05,29,00,35,13.30
2015,05,29,00,36,13.30
2015,05,29,00,37,13.30
2015,05,29,00,38,13.30
2015,05,29,00,39,13.40
2015,05,29,00,40,13.40
2015,05,29,00,41,13.40
2015,05,29,00,42,13.40
2015,05,29,00,43,13.40
2015,05,29,00,44,13.40
2015,05,29,00,45,13.40
2015,05,29,00,46,13.40
2015,05,29,00,47,13.40
2015,05,29,00,48,13.40
2015,05,29,00,49,13.40
2015,05,29,00,50,13.40
2015,05,29,00,51,13.40
2015,05,29,00,52,13.40
2015,05,29,00,53,13.40
2015,05,29,00,54,13.40
2015,05,29,00,55,13.40
2015,05,29,00,56,13.40
2015,05,29,00,57,13.40
2015,05,29,00,58,13.40
2015,05,29,00,59,13.40
2015,05,29,01,00,13.40
2015,05,29,01,01,13.40
2015,05,29,01,02,13.40
2015,05,29,01,03,13.40
2015,05,29,01,04,13.50
2015,05,29,01,05,13.50
2015,05,29,01,06,13.50
2015,05,29,01,07,13.50
2015,05,29,01,08,13.50
2015,05,29,01,09,13.50
2015,05,29,01,10,13.50
2015,05,29,01,11,13.60
2015,05,29,01,12,13.60
2015,05,29,01,13,13.50
2015,05,29,01,14,13.60
2015,05,29,01,15,13.60
2015,05,29,01,16,13.60
2015,05,29,01,17,13.60
2015,05,29,01,18,13.60
2015,05,29,01,19,13.60
2015,05,29,01,20,13.60
2015,05,29,01,21,13.60
2015,05,29,01,22,13.60
2015,05,29,01,23,13.60
2015,05,29,01,24,13.60
2015,05,29,01,25,13.60
2015,05,29,01,26,13.60
2015,05,29,01,27,13.60
2015,05,29,01,28,13.60
2015,05,29,01,29,13.60
2015,05,29,01,30,13.60
2015,05,29,01,31,13.60
2015,05,29,01,32,13.60
2015,05,29,01,33,13.60
2015,05,29,01,34,13.60
2015,05,29,01,35,13.60
2015,05,29,01,36,13.60
2015,05,29,01,37,13.60
2015,05,29,01,38,13.60
2015,05,29,01,39,13.60
2015,05,29,01,40,13.60
2015,05,29,01,41,13.60
2015,05,29,01,42,13.60
2015,05,29,01,43,13.60
2015,05,29,01,44,13.70
2015,05,29,01,45,13.70
2015,05,29,01,46,13.70
2015,05,29,01,47,13.70
2015,05,29,01,48,13.70
2015,05,29,01,49,13.70
2015,05,29,01,50,13.70
2015,05,29,01,51,13.70
2015,05,29,01,52,13.70
2015,05,29,01,53,13.70
2015,05,29,01,54,13.70
2015,05,29,01,55,13.80
2015,05,29,01,56,13.80
2015,05,29,01,57,13.70
2015,05,29,01,58,13.70
2015,05,29,01,59,13.70
2015,05,29,02,00,13.70
2015,05,29,02,01,13.70
2015,05,29,02,02,13.70
2015,05,29,02,03,13.70
2015,05,29,02,04,13.70
2015,05,29,02,05,13.70
2015,05,29,02,06,13.70
2015,05,29,02,07,13.70
2015,05,29,02,08,13.70
2015,05,29,02,09,13.70
2015,05,29,02,10,13.70
2015,05,29,02,11,13.60
2015,05,29,02,12,13.60
2015,05,29,02,13,13.60
2015,05,29,02,14,13.60
2015,05,29,02,15,13.60
2015,05,29,02,16,13.60
2015,05,29,02,17,13.60
2015,05,29,02,18,13.50
2015,05,29,02,19,13.50
2015,05,29,02,20,13.50
2015,05,29,02,21,13.40
2015,05,29,02,22,13.40
2015,05,29,02,23,13.40
2015,05,29,02,24,13.40
2015,05,29,02,25,13.40
2015,05,29,02,26,13.40
2015,05,29,02,27,13.30
2015,05,29,02,28,13.30
2015,05,29,02,29,13.30
2015,05,29,02,30,13.30
2015,05,29,02,31,13.30
2015,05,29,02,32,13.30
2015,05,29,02,33,13.30
2015,05,29,02,34,13.30
2015,05,29,02,35,13.30
2015,05,29,02,36,13.30
2015,05,29,02,37,13.30
2015,05,29,02,38,13.30
2015,05,29,02,39,13.30
2015,05,29,02,40,13.20
2015,05,29,02,41,13.20
2015,05,29,02,42,13.20
2015,05,29,02,43,13.20
2015,05,29,02,44,13.20
2015,05,29,02,45,13.20
2015,05,29,02,46,13.20
2015,05,29,02,47,13.20
2015,05,29,02,48,13.20
2015,05,29,02,49,13.20
2015,05,29,02,50,13.20
2015,05,29,02,51,13.20
2015,05,29,02,52,13.20
2015,05,29,02,53,13.20
2015,05,29,02,54,13.20
2015,05,29,02,55,13.20
2015,05,29,02,56,13.10
2015,05,29,02,57,13.10
2015,05,29,02,58,13.10
2015,05,29,02,59,13.10
2015,05,29,03,00,13.10
2015,05,29,03,01,13.10
2015,05,29,03,02,13.00
2015,05,29,03,03,13.00
2015,05,29,03,04,13.00
2015,05,29,03,05,13.00
2015,05,29,03,06,12.90
2015,05,29,03,07,12.90
2015,05,29,03,08,12.90
2015,05,29,03,09,12.90
2015,05,29,03,10,12.90
2015,05,29,03,11,12.90
2015,05,29,03,12,12.90
2015,05,29,03,13,12.90
2015,05,29,03,14,12.90
2015,05,29,03,15,12.90
2015,05,29,03,16,12.90
2015,05,29,03,17,12.90
2015,05,29,03,18,12.80
2015,05,29,03,19,12.80
2015,05,29,03,20,12.80
2015,05,29,03,21,12.80
2015,05,29,03,22,12.80
2015,05,29,03,23,12.80
2015,05,29,03,24,12.80
2015,05,29,03,25,12.70
2015,05,29,03,26,12.70
2015,05,29,03,27,12.70
2015,05,29,03,28,12.70
2015,05,29,03,29,12.70
2015,05,29,03,30,12.70
2015,05,29,03,31,12.60
2015,05,29,03,32,12.60
2015,05,29,03,33,12.60
2015,05,29,03,34,12.60
2015,05,29,03,35,12.60
2015,05,29,03,36,12.50
2015,05,29,03,37,12.50
2015,05,29,03,38,12.50
2015,05,29,03,39,12.50
2015,05,29,03,40,12.40
2015,05,29,03,41,12.40
2015,05,29,03,42,12.40
2015,05,29,03,43,12.40
2015,05,29,03,44,12.40
2015,05,29,03,45,12.40
2015,05,29,03,46,12.40
2015,05,29,03,47,12.40
2015,05,29,03,48,12.40
2015,05,29,03,49,12.40
2015,05,29,03,50,12.40
2015,05,29,03,51,12.30
2015,05,29,03,52,12.30
2015,05,29,03,53,12.30
2015,05,29,03,54,12.30
2015,05,29,03,55,12.30
2015,05,29,03,56,12.30
2015,05,29,03,57,12.30
2015,05,29,03,58,12.30
2015,05,29,03,59,12.30
2015,05,29,04,00,12.30
2015,05,29,04,01,12.30
2015,05,29,04,02,12.30
2015,05,29,04,03,12.30
2015,05,29,04,04,12.30
2015,05,29,04,05,12.30
2015,05,29,04,06,12.30
2015,05,29,04,07,12.30
2015,05,29,04,08,12.30
2015,05,29,04,09,12.30
2015,05,29,04,10,12.30
2015,05,29,04,11,12.30
2015,05,29,04,12,12.30
2015,05,29,04,13,12.30
2015,05,29,04,14,12.30
2015,05,29,04,15,12.30
2015,05,29,04,16,12.20
2015,05,29,04,17,12.20
2015,05,29,04,18,12.20
2015,05,29,04,19,12.20
2015,05,29,04,20,12.20
2015,05,29,04,21,12.20
2015,05,29,04,22,12.20
2015,05,29,04,23,12.20
2015,05,29,04,24,12.20
2015,05,29,04,25,12.20
2015,05,29,04,26,12.20
2015,05,29,04,27,12.20
2015,05,29,04,28,12.20
2015,05,29,04,29,12.20
2015,05,29,04,30,12.20
2015,05,29,04,31,12.20
2015,05,29,04,32,12.20
2015,05,29,04,33,12.20
2015,05,29,04,34,12.20
2015,05,29,04,35,12.20
2015,05,29,04,36,12.20
2015,05,29,04,37,12.20
2015,05,29,04,38,12.20
2015,05,29,04,39,12.20
2015,05,29,04,40,12.20
2015,05,29,04,41,12.10
2015,05,29,04,42,12.10
2015,05,29,04,43,12.10
2015,05,29,04,44,12.10
2015,05,29,04,45,12.10
2015,05,29,04,46,12.10
2015,05,29,04,47,12.10
2015,05,29,04,48,12.10
2015,05,29,04,49,12.00
2015,05,29,04,50,12.00
2015,05,29,04,51,12.00
2015,05,29,04,52,12.00
2015,05,29,04,53,12.00
2015,05,29,04,54,11.90
2015,05,29,04,55,11.90
2015,05,29,04,56,11.90
2015,05,29,04,57,11.90
2015,05,29,04,58,11.90
2015,05,29,04,59,11.80
2015,05,29,05,00,11.80
2015,05,29,05,01,11.80
2015,05,29,05,02,11.80
2015,05,29,05,03,11.80
2015,05,29,05,04,11.70
2015,05,29,05,05,11.70
2015,05,29,05,06,11.70
2015,05,29,05,07,11.70
2015,05,29,05,08,11.60
2015,05,29,05,09,11.60
2015,05,29,05,10,11.60
2015,05,29,05,11,11.60
2015,05,29,05,12,11.50
2015,05,29,05,13,11.50
2015,05,29,05,14,11.50
2015,05,29,05,15,11.40
2015,05,29,05,16,11.40
2015,05,29,05,17,11.40
2015,05,29,05,18,11.40
2015,05,29,05,19,11.30
2015,05,29,05,20,11.30
2015,05,29,05,21,11.30
2015,05,29,05,22,11.30
2015,05,29,05,23,11.30
2015,05,29,05,24,11.30
2015,05,29,05,25,11.30
2015,05,29,05,26,11.30
2015,05,29,05,27,11.20
2015,05,29,05,28,11.20
2015,05,29,05,29,11.20
2015,05,29,05,30,11.20
2015,05,29,05,31,11.20
2015,05,29,05,32,11.20
2015,05,29,05,33,11.20
2015,05,29,05,34,11.20
2015,05,29,05,35,11.20
2015,05,29,05,36,11.20
2015,05,29,05,37,11.20
2015,05,29,05,38,11.20
2015,05,29,05,39,11.10
2015,05,29,05,40,11.10
2015,05,29,05,41,11.20
2015,05,29,05,42,11.20
2015,05,29,05,43,11.20
2015,05,29,05,44,11.20
2015,05,29,05,45,11.20
2015,05,29,05,46,11.20
2015,05,29,05,47,11.20
2015,05,29,05,48,11.20
2015,05,29,05,49,11.20
2015,05,29,05,50,11.20
2015,05,29,05,51,11.20
2015,05,29,05,52,11.20
2015,05,29,05,53,11.30
2015,05,29,05,54,11.30
2015,05,29,05,55,11.30
2015,05,29,05,56,11.30
2015,05,29,05,57,11.30
2015,05,29,05,58,11.30
2015,05,29,05,59,11.30
2015,05,29,06,00,11.30
2015,05,29,06,01,11.30
2015,05,29,06,02,11.40
2015,05,29,06,03,11.40
2015,05,29,06,04,11.40
2015,05,29,06,05,11.40
2015,05,29,06,06,11.40
2015,05,29,06,07,11.40
2015,05,29,06,08,11.40
2015,05,29,06,09,11.40
2015,05,29,06,10,11.40
2015,05,29,06,11,11.40
2015,05,29,06,12,11.40
2015,05,29,06,13,11.40
2015,05,29,06,14,11.40
2015,05,29,06,15,11.40
2015,05,29,06,16,11.40
2015,05,29,06,17,11.30
2015,05,29,06,18,11.30
2015,05,29,06,19,11.30
2015,05,29,06,20,11.30
2015,05,29,06,21,11.30
2015,05,29,06,22,11.30
2015,05,29,06,23,11.30
2015,05,29,06,24,11.40
2015,05,29,06,25,11.40
2015,05,29,06,26,11.40
2015,05,29,06,27,11.40
2015,05,29,06,28,11.40
2015,05,29,06,29,11.40
2015,05,29,06,30,11.40
2015,05,29,06,31,11.50
2015,05,29,06,32,11.50
2015,05,29,06,33,11.60
2015,05,29,06,34,11.60
2015,05,29,06,35,11.70
2015,05,29,06,36,11.70
2015,05,29,06,37,11.80
2015,05,29,06,38,11.80
2015,05,29,06,39,11.80
2015,05,29,06,40,11.90
2015,05,29,06,41,11.90
2015,05,29,06,42,12.00
2015,05,29,06,43,12.00
2015,05,29,06,44,12.10
2015,05,29,06,45,12.10
2015,05,29,06,46,12.20
2015,05,29,06,47,12.20
2015,05,29,06,48,12.20
2015,05,29,06,49,12.30
2015,05,29,06,50,12.30
2015,05,29,06,51,12.40
2015,05,29,06,52,12.40
2015,05,29,06,53,12.40
2015,05,29,06,54,12.50
2015,05,29,06,55,12.50
2015,05,29,06,56,12.60
2015,05,29,06,57,12.70
2015,05,29,06,58,12.70
2015,05,29,06,59,12.70
2015,05,29,07,00,12.70
2015,05,29,07,01,12.80
2015,05,29,07,02,12.80
2015,05,29,07,03,12.80
2015,05,29,07,04,12.90
2015,05,29,07,05,12.90
2015,05,29,07,06,13.00
2015,05,29,07,07,13.00
2015,05,29,07,08,13.10
2015,05,29,07,09,13.10
2015,05,29,07,10,13.20
2015,05,29,07,11,13.20
2015,05,29,07,12,13.30
2015,05,29,07,13,13.30
2015,05,29,07,14,13.40
2015,05,29,07,15,13.40
2015,05,29,07,16,13.50
2015,05,29,07,17,13.50
2015,05,29,07,18,13.60
2015,05,29,07,19,13.60
2015,05,29,07,20,13.60
2015,05,29,07,21,13.70
2015,05,29,07,22,13.70
2015,05,29,07,23,13.70
2015,05,29,07,24,13.80
2015,05,29,07,25,13.80
2015,05,29,07,26,13.80
2015,05,29,07,27,13.90
2015,05,29,07,28,13.90
2015,05,29,07,29,14.00
2015,05,29,07,30,14.00
2015,05,29,07,31,14.10
2015,05,29,07,32,14.10
2015,05,29,07,33,14.10
2015,05,29,07,34,14.20
2015,05,29,07,35,14.20
2015,05,29,07,36,14.30
2015,05,29,07,37,14.30
2015,05,29,07,38,14.40
2015,05,29,07,39,14.40
2015,05,29,07,40,14.50
2015,05,29,07,41,14.60
2015,05,29,07,42,14.60
2015,05,29,07,43,14.60
2015,05,29,07,44,14.60
2015,05,29,07,45,14.60
2015,05,29,07,46,14.60
2015,05,29,07,47,14.60
2015,05,29,07,48,14.60
2015,05,29,07,49,14.70
2015,05,29,07,50,14.70
2015,05,29,07,51,14.70
2015,05,29,07,52,14.80
2015,05,29,07,53,14.80
2015,05,29,07,54,14.80
2015,05,29,07,55,14.90
2015,05,29,07,56,14.90
2015,05,29,07,57,14.90
2015,05,29,07,58,15.00
2015,05,29,07,59,15.00
2015,05,29,08,00,15.10
2015,05,29,08,01,15.20
2015,05,29,08,02,15.20
2015,05,29,08,03,15.20
2015,05,29,08,04,15.20
2015,05,29,08,05,15.30
2015,05,29,08,06,15.30
2015,05,29,08,07,15.30
2015,05,29,08,08,15.30
2015,05,29,08,09,15.40
2015,05,29,08,10,15.40
2015,05,29,08,11,15.40
2015,05,29,08,12,15.40
2015,05,29,08,13,15.50
2015,05,29,08,14,15.60
2015,05,29,08,15,15.60
2015,05,29,08,16,15.70
2015,05,29,08,17,15.70
2015,05,29,08,18,15.70
2015,05,29,08,19,15.80
2015,05,29,08,20,15.80
2015,05,29,08,21,15.80
2015,05,29,08,22,15.80
2015,05,29,08,23,15.90
2015,05,29,08,24,15.90
2015,05,29,08,25,16.00
2015,05,29,08,26,16.00
2015,05,29,08,27,16.10
2015,05,29,08,28,16.10
2015,05,29,08,29,16.10
2015,05,29,08,30,16.10
2015,05,29,08,31,16.20
2015,05,29,08,32,16.20
2015,05,29,08,33,16.30
2015,05,29,08,34,16.30
2015,05,29,08,35,16.40
2015,05,29,08,36,16.40
2015,05,29,08,37,16.50
2015,05,29,08,38,16.50
2015,05,29,08,39,16.50
2015,05,29,08,40,16.60
2015,05,29,08,41,16.60
2015,05,29,08,42,16.60
2015,05,29,08,43,16.70
2015,05,29,08,44,16.70
2015,05,29,08,45,16.70
2015,05,29,08,46,16.80
2015,05,29,08,47,16.80
2015,05,29,08,48,16.80
2015,05,29,08,49,16.90
2015,05,29,08,50,16.90
2015,05,29,08,51,16.90
2015,05,29,08,52,16.90
2015,05,29,08,53,16.90
2015,05,29,08,54,17.00
2015,05,29,08,55,17.00
2015,05,29,08,56,17.00
2015,05,29,08,57,17.10
2015,05,29,08,58,17.10
2015,05,29,08,59,17.10
2015,05,29,09,00,17.20
2015,05,29,09,01,17.20
2015,05,29,09,02,17.30
2015,05,29,09,03,17.30
2015,05,29,09,04,17.30
2015,05,29,09,05,17.30
2015,05,29,09,06,17.30
2015,05,29,09,07,17.30
2015,05,29,09,08,17.40
2015,05,29,09,09,17.40
2015,05,29,09,10,17.50
2015,05,29,09,11,17.60
2015,05,29,09,12,17.70
2015,05,29,09,13,17.70
2015,05,29,09,14,17.80
2015,05,29,09,15,17.80
2015,05,29,09,16,17.90
2015,05,29,09,17,17.90
2015,05,29,09,18,18.00
2015,05,29,09,19,18.00
2015,05,29,09,20,18.10
2015,05,29,09,21,18.10
2015,05,29,09,22,18.00
2015,05,29,09,23,18.00
2015,05,29,09,24,18.00
2015,05,29,09,25,18.00
2015,05,29,09,26,18.10
2015,05,29,09,27,18.10
2015,05,29,09,28,18.10
2015,05,29,09,29,18.20
2015,05,29,09,30,18.20
2015,05,29,09,31,18.20
2015,05,29,09,32,18.30
2015,05,29,09,33,18.30
2015,05,29,09,34,18.30
2015,05,29,09,35,18.30
2015,05,29,09,36,18.30
2015,05,29,09,37,18.40
2015,05,29,09,38,18.40
2015,05,29,09,39,18.50
2015,05,29,09,40,18.60
2015,05,29,09,41,18.60
2015,05,29,09,42,18.70
2015,05,29,09,43,18.70
2015,05,29,09,44,18.80
2015,05,29,09,45,18.80
2015,05,29,09,46,18.80
2015,05,29,09,47,18.90
2015,05,29,09,48,18.90
2015,05,29,09,49,19.00
2015,05,29,09,50,19.00
2015,05,29,09,51,19.10
2015,05,29,09,52,19.20
2015,05,29,09,53,19.30
2015,05,29,09,54,19.30
2015,05,29,09,55,19.40
2015,05,29,09,56,19.40
2015,05,29,09,57,19.40
2015,05,29,09,58,19.40
2015,05,29,09,59,19.50
2015,05,29,10,00,19.50
2015,05,29,10,01,19.60
2015,05,29,10,02,19.60
2015,05,29,10,03,19.60
2015,05,29,10,04,19.70
2015,05,29,10,05,19.70
2015,05,29,10,06,19.70
2015,05,29,10,07,19.70
2015,05,29,10,08,19.70
2015,05,29,10,09,19.70
2015,05,29,10,10,19.70
2015,05,29,10,11,19.70
2015,05,29,10,12,19.70
2015,05,29,10,13,19.70
2015,05,29,10,14,19.60
2015,05,29,10,15,19.60
2015,05,29,10,16,19.50
2015,05,29,10,17,19.50
2015,05,29,10,18,19.40
2015,05,29,10,19,19.40
2015,05,29,10,20,19.40
2015,05,29,10,21,19.40
2015,05,29,10,22,19.50
2015,05,29,10,23,19.50
2015,05,29,10,24,19.60
2015,05,29,10,25,19.60
2015,05,29,10,26,19.50
2015,05,29,10,27,19.50
2015,05,29,10,28,19.40
2015,05,29,10,29,19.30
2015,05,29,10,30,19.30
2015,05,29,10,31,19.30
2015,05,29,10,32,19.30
2015,05,29,10,33,19.30
2015,05,29,10,34,19.30
2015,05,29,10,35,19.30
2015,05,29,10,36,19.30
2015,05,29,10,37,19.30
2015,05,29,10,38,19.30
2015,05,29,10,39,19.30
2015,05,29,10,40,19.30
2015,05,29,10,41,19.30
2015,05,29,10,42,19.30
2015,05,29,10,43,19.30
2015,05,29,10,44,19.30
2015,05,29,10,45,19.30
2015,05,29,10,46,19.30
2015,05,29,10,47,19.30
2015,05,29,10,48,19.30
2015,05,29,10,49,19.30
2015,05,29,10,50,19.30
2015,05,29,10,51,19.40
2015,05,29,10,52,19.40
2015,05,29,10,53,19.50
2015,05,29,10,54,19.50
2015,05,29,10,55,19.60
2015,05,29,10,56,19.60
2015,05,29,10,57,19.60
2015,05,29,10,58,19.60
2015,05,29,10,59,19.60
2015,05,29,11,00,19.70
2015,05,29,11,01,19.70
2015,05,29,11,02,19.70
2015,05,29,11,03,19.60
2015,05,29,11,04,19.60
2015,05,29,11,05,19.50
2015,05,29,11,06,19.40
2015,05,29,11,07,19.40
2015,05,29,11,08,19.30
2015,05,29,11,09,19.30
2015,05,29,11,10,19.20
2015,05,29,11,11,19.20
2015,05,29,11,12,19.20
2015,05,29,11,13,19.30
2015,05,29,11,14,19.20
2015,05,29,11,15,19.20
2015,05,29,11,16,19.10
2015,05,29,11,17,19.00
2015,05,29,11,18,19.00
2015,05,29,11,19,19.00
2015,05,29,11,20,19.10
2015,05,29,11,21,19.10
2015,05,29,11,22,19.10
2015,05,29,11,23,19.10
2015,05,29,11,24,19.20
2015,05,29,11,25,19.20
2015,05,29,11,26,19.10
2015,05,29,11,27,19.10
2015,05,29,11,28,19.10
2015,05,29,11,29,19.10
2015,05,29,11,30,19.10
2015,05,29,11,31,19.10
2015,05,29,11,32,19.20
2015,05,29,11,33,19.20
2015,05,29,11,34,19.30
2015,05,29,11,35,19.30
2015,05,29,11,36,19.40
2015,05,29,11,37,19.40
2015,05,29,11,38,19.50
2015,05,29,11,39,19.50
2015,05,29,11,40,19.40
2015,05,29,11,41,19.40
2015,05,29,11,42,19.40
2015,05,29,11,43,19.40
2015,05,29,11,44,19.30
2015,05,29,11,45,19.30
2015,05,29,11,46,19.30
2015,05,29,11,47,19.30
2015,05,29,11,48,19.30
2015,05,29,11,49,19.30
2015,05,29,11,50,19.40
2015,05,29,11,51,19.40
2015,05,29,11,52,19.40
2015,05,29,11,53,19.50
2015,05,29,11,54,19.50
2015,05,29,11,55,19.50
2015,05,29,11,56,19.50
2015,05,29,11,57,19.50
2015,05,29,11,58,19.40
2015,05,29,11,59,19.50
2015,05,29,12,00,19.60
2015,05,29,12,01,19.60
2015,05,29,12,02,19.60
2015,05,29,12,03,19.70
2015,05,29,12,04,19.70
2015,05,29,12,05,19.70
2015,05,29,12,06,19.70
2015,05,29,12,07,19.70
2015,05,29,12,08,19.70
2015,05,29,12,09,19.70
2015,05,29,12,10,19.80
2015,05,29,12,11,19.80
2015,05,29,12,12,19.80
2015,05,29,12,13,19.80
2015,05,29,12,14,19.80
2015,05,29,12,15,19.70
2015,05,29,12,16,19.80
2015,05,29,12,17,19.80
2015,05,29,12,18,19.80
2015,05,29,12,19,19.80
2015,05,29,12,20,19.90
2015,05,29,12,21,19.90
2015,05,29,12,22,19.90
2015,05,29,12,23,20.00
2015,05,29,12,24,20.00
2015,05,29,12,25,20.00
2015,05,29,12,26,20.00
2015,05,29,12,27,19.90
2015,05,29,12,28,19.90
2015,05,29,12,29,19.90
2015,05,29,12,30,20.00
2015,05,29,12,31,20.00
2015,05,29,12,32,20.10
2015,05,29,12,33,20.10
2015,05,29,12,34,20.10
2015,05,29,12,35,20.10
2015,05,29,12,36,20.10
2015,05,29,12,37,20.10
2015,05,29,12,38,20.10
2015,05,29,12,39,20.10
2015,05,29,12,40,20.10
2015,05,29,12,41,20.00
2015,05,29,12,42,19.70
2015,05,29,12,43,19.50
2015,05,29,12,44,19.40
2015,05,29,12,45,19.30
2015,05,29,12,46,19.20
2015,05,29,12,47,19.20
2015,05,29,12,48,19.10
2015,05,29,12,49,19.10
2015,05,29,12,50,19.00
2015,05,29,12,51,18.90
2015,05,29,12,52,18.90
2015,05,29,12,53,18.90
2015,05,29,12,54,19.00
2015,05,29,12,55,19.00
2015,05,29,12,56,19.00
2015,05,29,12,57,19.00
2015,05,29,12,58,18.90
2015,05,29,12,59,18.90
2015,05,29,13,00,18.80
2015,05,29,13,01,18.80
2015,05,29,13,02,18.80
2015,05,29,13,03,18.90
2015,05,29,13,04,19.10
2015,05,29,13,05,19.20
2015,05,29,13,06,19.40
2015,05,29,13,07,19.50
2015,05,29,13,08,19.60
2015,05,29,13,09,19.70
2015,05,29,13,10,19.70
2015,05,29,13,11,19.60
2015,05,29,13,12,19.50
2015,05,29,13,13,19.30
2015,05,29,13,14,19.10
2015,05,29,13,15,18.90
2015,05,29,13,16,18.90
2015,05,29,13,17,18.90
2015,05,29,13,18,19.00
2015,05,29,13,19,19.10
2015,05,29,13,20,19.10
2015,05,29,13,21,19.20
2015,05,29,13,22,19.20
2015,05,29,13,23,19.20
2015,05,29,13,24,19.10
2015,05,29,13,25,19.10
2015,05,29,13,26,19.10
2015,05,29,13,27,19.10
2015,05,29,13,28,19.10
2015,05,29,13,29,19.20
2015,05,29,13,30,19.20
2015,05,29,13,31,19.30
2015,05,29,13,32,19.30
2015,05,29,13,33,19.30
2015,05,29,13,34,19.30
2015,05,29,13,35,19.30
2015,05,29,13,36,19.30
2015,05,29,13,37,19.30
2015,05,29,13,38,19.30
2015,05,29,13,39,19.40
2015,05,29,13,40,19.40
2015,05,29,13,41,19.50
2015,05,29,13,42,19.50
2015,05,29,13,43,19.50
2015,05,29,13,44,19.50
2015,05,29,13,45,19.80
2015,05,29,13,46,19.90
2015,05,29,13,47,20.00
2015,05,29,13,48,20.00
2015,05,29,13,49,20.10
2015,05,29,13,50,20.10
2015,05,29,13,51,20.20
2015,05,29,13,52,20.20
2015,05,29,13,53,20.30
2015,05,29,13,54,20.40
2015,05,29,13,55,20.50
2015,05,29,13,56,20.60
2015,05,29,13,57,20.70
2015,05,29,13,58,20.70
2015,05,29,13,59,20.70
2015,05,29,14,00,20.80
2015,05,29,14,01,20.90
2015,05,29,14,02,21.00
2015,05,29,14,03,21.10
2015,05,29,14,04,21.10
2015,05,29,14,05,21.10
2015,05,29,14,06,21.10
2015,05,29,14,07,21.10
2015,05,29,14,08,21.10
2015,05,29,14,09,21.10
2015,05,29,14,10,21.20
2015,05,29,14,11,21.20
2015,05,29,14,12,21.20
2015,05,29,14,13,21.20
2015,05,29,14,14,21.10
2015,05,29,14,15,20.90
2015,05,29,14,16,20.80
2015,05,29,14,17,20.80
2015,05,29,14,18,20.80
2015,05,29,14,19,20.70
2015,05,29,14,20,20.70
2015,05,29,14,21,20.70
2015,05,29,14,22,20.80
2015,05,29,14,23,20.80
2015,05,29,14,24,20.80
2015,05,29,14,25,20.70
2015,05,29,14,26,20.60
2015,05,29,14,27,20.60
2015,05,29,14,28,20.60
2015,05,29,14,29,20.60
2015,05,29,14,30,20.70
2015,05,29,14,31,20.80
2015,05,29,14,32,21.00
2015,05,29,14,33,21.10
2015,05,29,14,34,21.20
2015,05,29,14,35,21.20
2015,05,29,14,36,21.10
2015,05,29,14,37,21.00
2015,05,29,14,38,21.00
2015,05,29,14,39,20.90
2015,05,29,14,40,20.80
2015,05,29,14,41,20.70
2015,05,29,14,42,20.70
2015,05,29,14,43,20.60
2015,05,29,14,44,20.70
2015,05,29,14,45,20.70
2015,05,29,14,46,20.80
2015,05,29,14,47,20.90
2015,05,29,14,48,21.00
2015,05,29,14,49,21.10
2015,05,29,14,50,21.20
2015,05,29,14,51,21.30
2015,05,29,14,52,21.40
2015,05,29,14,53,21.50
2015,05,29,14,54,21.60
2015,05,29,14,55,21.70
2015,05,29,14,56,21.80
2015,05,29,14,57,21.90
2015,05,29,14,58,22.10
2015,05,29,14,59,22.20
2015,05,29,15,00,22.30
2015,05,29,15,01,22.40
2015,05,29,15,02,22.50
2015,05,29,15,03,22.50
2015,05,29,15,04,22.50
2015,05,29,15,05,22.50
2015,05,29,15,06,22.60
2015,05,29,15,07,22.60
2015,05,29,15,08,22.70
2015,05,29,15,09,22.70
2015,05,29,15,10,22.80
2015,05,29,15,11,22.80
2015,05,29,15,12,22.80
2015,05,29,15,13,22.80
2015,05,29,15,14,22.80
2015,05,29,15,15,22.90
2015,05,29,15,16,22.90
2015,05,29,15,17,23.00
2015,05,29,15,18,23.10
2015,05,29,15,19,23.20
2015,05,29,15,20,23.20
2015,05,29,15,21,23.30
2015,05,29,15,22,23.40
2015,05,29,15,23,23.50
2015,05,29,15,24,23.60
2015,05,29,15,25,23.70
2015,05,29,15,26,23.80
2015,05,29,15,27,23.80
2015,05,29,15,28,24.00
2015,05,29,15,29,24.10
2015,05,29,15,30,24.10
2015,05,29,15,31,24.20
2015,05,29,15,32,24.30
2015,05,29,15,33,24.40
2015,05,29,15,34,24.50
2015,05,29,15,35,24.60
2015,05,29,15,36,24.60
2015,05,29,15,37,24.60
2015,05,29,15,38,24.70
2015,05,29,15,39,24.70
2015,05,29,15,40,24.80
2015,05,29,15,41,24.80
2015,05,29,15,42,24.90
2015,05,29,15,43,24.90
2015,05,29,15,44,25.00
2015,05,29,15,45,25.00
2015,05,29,15,46,25.10
2015,05,29,15,47,25.10
2015,05,29,15,48,25.10
2015,05,29,15,49,25.20
2015,05,29,15,50,25.20
2015,05,29,15,51,25.20
2015,05,29,15,52,25.30
2015,05,29,15,53,25.30
2015,05,29,15,54,25.30
2015,05,29,15,55,25.30
2015,05,29,15,56,25.30
2015,05,29,15,57,25.30
2015,05,29,15,58,25.30
2015,05,29,15,59,25.20
2015,05,29,16,00,25.20
2015,05,29,16,01,25.10
2015,05,29,16,02,25.10
2015,05,29,16,03,25.20
2015,05,29,16,04,25.30
2015,05,29,16,05,25.30
2015,05,29,16,06,25.30
2015,05,29,16,07,25.30
2015,05,29,16,08,25.30
2015,05,29,16,09,25.30
2015,05,29,16,10,25.30
2015,05,29,16,11,25.30
2015,05,29,16,12,25.40
2015,05,29,16,13,25.50
2015,05,29,16,14,25.50
2015,05,29,16,15,25.50
2015,05,29,16,16,25.50
2015,05,29,16,17,25.50
2015,05,29,16,18,25.60
2015,05,29,16,19,25.60
2015,05,29,16,20,25.70
2015,05,29,16,21,25.70
2015,05,29,16,22,25.70
2015,05,29,16,23,25.60
2015,05,29,16,24,25.50
2015,05,29,16,25,25.40
2015,05,29,16,26,25.30
2015,05,29,16,27,25.30
2015,05,29,16,28,25.20
2015,05,29,16,29,25.10
2015,05,29,16,30,25.10
2015,05,29,16,31,25.10
2015,05,29,16,32,25.10
2015,05,29,16,33,25.10
2015,05,29,16,34,25.00
2015,05,29,16,35,25.00
2015,05,29,16,36,24.90
2015,05,29,16,37,24.90
2015,05,29,16,38,24.80
2015,05,29,16,39,24.70
2015,05,29,16,40,24.70
2015,05,29,16,41,24.60
2015,05,29,16,42,24.50
2015,05,29,16,43,24.50
2015,05,29,16,44,24.50
2015,05,29,16,45,24.40
2015,05,29,16,46,24.40
2015,05,29,16,47,24.40
2015,05,29,16,48,24.30
2015,05,29,16,49,24.30
2015,05,29,16,50,24.20
2015,05,29,16,51,24.20
2015,05,29,16,52,24.20
2015,05,29,16,53,24.20
2015,05,29,16,54,24.10
2015,05,29,16,55,24.10
2015,05,29,16,56,24.10
2015,05,29,16,57,24.00
2015,05,29,16,58,24.00
2015,05,29,16,59,24.00
2015,05,29,17,00,24.00
2015,05,29,17,01,23.90
2015,05,29,17,02,23.90
2015,05,29,17,03,23.90
2015,05,29,17,04,23.90
2015,05,29,17,05,23.90
2015,05,29,17,06,23.90
2015,05,29,17,07,23.80
2015,05,29,17,08,23.80
2015,05,29,17,09,23.80
2015,05,29,17,10,23.80
2015,05,29,17,11,23.80
2015,05,29,17,12,23.90
2015,05,29,17,13,23.90
2015,05,29,17,14,23.90
2015,05,29,17,15,23.90
2015,05,29,17,16,23.90
2015,05,29,17,17,23.90
2015,05,29,17,18,23.90
2015,05,29,17,19,23.90